Vatry, France

6:34 AM CEST on September 29, 2016 (GMT +0200)
Vatry

Weather History for LFOK - November, 2012

Change the Weather History Date:

Wednesday, November 14, 2012

  Actual Average (LFQB) Record (LFQB)
Temperature  
Mean Temperature 36 °F -  
Max Temperature 41 °F 46 °F 64 °F (2010)
Min Temperature 32 °F 37 °F 29 °F (2012)
Degree Days  
Heating Degree Days 28    
Moisture  
Dew Point 37 °F    
Average Humidity 96    
Maximum Humidity 100    
Minimum Humidity 87    
Precipitation  
Precipitation 0.00 in - - ()
Sea Level Pressure  
Sea Level Pressure 30.29 in    
Wind  
Wind Speed 6 mph ()    
Max Wind Speed 12 mph    
Max Gust Speed -    
Visibility 1.7 miles    
Events Fog    
Averages and records for this station are not official NWS values.
T = Trace of Precipitation, MM = Missing Value Source: Averaged Metar Reports

Daily Weather History Graph

Daily Weather History Graph

Search for Another Location

Airport or City:

Trip Planner

Search our weather history database for the weather conditions in past years. The results will help you decide how hot, cold, wet, or windy it might be!

Date:

Astronomy

Nov. 14, 2012 Rise Set
Actual Time 7:50 AM CET 5:03 PM CET
Civil Twilight 7:16 AM CET 5:38 PM CET
Nautical Twilight 6:38 AM CET 6:16 PM CET
Astronomical Twilight 6:01 AM CET 6:53 PM CET
Moon 8:26 AM CET (11/14) 5:32 PM CET (11/14)
Length of Visible Light 10h 21m
Length of Day
9h 13m
New Moon, 0% of the Moon is Illuminated
Nov 14
New Moon
Nov 20
First Quarter
Nov 28
Full
Dec 6
Last Quarter
Dec 13
New

Hourly Weather History & Observations

Time (CET) Temp. Windchill Dew Point Humidity Pressure Visibility Wind Dir Wind Speed Gust Speed Precip Events Conditions
12:00 AM 37.4 °F 33.8 °F 35.6 °F 93% 30.36 in 3.7 mi NE 4.6 mph - N/A   Unknown
12:30 AM 35.6 °F - 33.8 °F 93% 30.36 in - NNE 2.3 mph - N/A   Mist
1:00 AM 33.8 °F 28.6 °F 33.8 °F 100% 30.36 in 1.9 mi NNE 5.8 mph - N/A   Mist
1:30 AM 33.8 °F 30.8 °F 33.8 °F 100% 30.36 in - North 3.5 mph - N/A   Mist
2:00 AM 33.8 °F 30.8 °F 32.0 °F 93% 30.36 in 1.6 mi North 3.5 mph - N/A   Mist
2:30 AM 33.8 °F 29.6 °F 32.0 °F 93% 30.36 in 0.8 mi North 4.6 mph - N/A Fog Fog
3:00 AM 33.8 °F 27.7 °F 32.0 °F 93% 30.36 in 0.5 mi NNE 6.9 mph - N/A Fog Fog
3:30 AM 32.0 °F 26.4 °F 32.0 °F 100% 30.36 in 0.1 mi NNE 5.8 mph - N/A Fog Fog
4:00 AM 32.0 °F 26.4 °F 30.2 °F 93% 30.33 in 0.1 mi NNE 5.8 mph - N/A Fog Light Freezing Fog
4:30 AM 32.0 °F 25.6 °F 30.2 °F 93% 30.33 in 0.1 mi NE 6.9 mph - N/A Fog Light Freezing Fog
5:00 AM 32.0 °F 24.8 °F 32.0 °F 100% 30.33 in 0.2 mi NE 8.1 mph - N/A Fog Fog
5:30 AM 33.8 °F 29.6 °F 33.8 °F 100% 30.33 in 0.9 mi East 4.6 mph - N/A   Mist
6:00 AM 35.6 °F 29.9 °F 35.6 °F 100% 30.33 in 0.4 mi ENE 6.9 mph - N/A Fog Fog
6:30 AM 35.6 °F 28.0 °F 35.6 °F 100% 30.33 in 0.9 mi ENE 10.4 mph - N/A Fog Patches of Fog
7:00 AM 37.4 °F 29.8 °F 37.4 °F 100% 30.30 in 1.2 mi NE 11.5 mph - N/A   Overcast
7:30 AM 37.4 °F 30.3 °F 37.4 °F 100% 30.33 in 0.7 mi ENE 10.4 mph - N/A Fog Patches of Fog
8:00 AM 37.4 °F 32.1 °F 37.4 °F 100% 30.33 in 0.2 mi East 6.9 mph - N/A Fog Fog
8:30 AM 37.4 °F 31.4 °F 37.4 °F 100% 30.33 in 0.3 mi East 8.1 mph - N/A Fog Fog
9:00 AM 37.4 °F 30.3 °F 37.4 °F 100% 30.33 in 0.1 mi East 10.4 mph - N/A Fog Fog
9:30 AM 37.4 °F 32.1 °F 37.4 °F 100% 30.33 in 0.1 mi East 6.9 mph - N/A Fog Fog
10:00 AM 37.4 °F 31.4 °F 37.4 °F 100% 30.33 in 0.1 mi East 8.1 mph - N/A Fog Fog
10:30 AM 37.4 °F 32.1 °F 37.4 °F 100% 30.30 in 0.1 mi East 6.9 mph - N/A Fog Fog
11:00 AM 37.4 °F 31.4 °F 37.4 °F 100% 30.30 in 0.2 mi ESE 8.1 mph - N/A Fog Fog
11:30 AM 39.2 °F 34.2 °F 39.2 °F 100% 30.30 in 0.2 mi ESE 6.9 mph - N/A Fog Fog
12:00 PM 39.2 °F 33.6 °F 39.2 °F 100% 30.30 in 0.3 mi East 8.1 mph - N/A Fog Fog
12:30 PM 39.2 °F 34.2 °F 39.2 °F 100% 30.30 in 0.6 mi East 6.9 mph - N/A Fog Fog
1:00 PM 39.2 °F 35.0 °F 39.2 °F 100% 30.27 in 1.0 mi East 5.8 mph - N/A Fog Fog
1:30 PM 39.2 °F 35.0 °F 39.2 °F 100% 30.27 in 1.5 mi East 5.8 mph - N/A   Overcast
2:00 PM 39.2 °F 33.6 °F 39.2 °F 100% 30.27 in - East 8.1 mph - N/A   Overcast
2:30 PM 39.2 °F 34.2 °F 39.2 °F 100% 30.27 in 3.1 mi East 6.9 mph - N/A   Overcast
3:00 PM 41.0 °F 35.2 °F 39.2 °F 93% 30.27 in 3.7 mi East 9.2 mph - N/A   Overcast
3:30 PM 41.0 °F 35.8 °F 39.2 °F 93% 30.24 in 3.7 mi East 8.1 mph - N/A   Overcast
4:00 PM 41.0 °F 35.8 °F 39.2 °F 93% 30.24 in 3.7 mi ENE 8.1 mph - N/A   Overcast
4:30 PM 41.0 °F 35.2 °F 39.2 °F 93% 30.24 in 3.7 mi ENE 9.2 mph - N/A   Overcast
5:00 PM 41.0 °F 35.8 °F 39.2 °F 93% 30.24 in 3.7 mi East 8.1 mph - N/A   Overcast
5:30 PM 41.0 °F 35.2 °F 39.2 °F 93% 30.24 in 3.7 mi East 9.2 mph - N/A   Overcast
6:00 PM 41.0 °F 35.2 °F 37.4 °F 87% 30.24 in 3.7 mi ESE 9.2 mph - N/A   Overcast
6:30 PM 41.0 °F 35.8 °F 39.2 °F 93% 30.24 in 3.1 mi ESE 8.1 mph - N/A   Overcast
7:00 PM 41.0 °F 35.8 °F 39.2 °F 93% 30.24 in 3.1 mi East 8.1 mph - N/A   Overcast
7:30 PM 41.0 °F 36.4 °F 39.2 °F 93% 30.24 in 3.1 mi East 6.9 mph - N/A   Overcast
8:00 PM 41.0 °F 37.1 °F 39.2 °F 93% 30.24 in 3.1 mi ESE 5.8 mph - N/A   Overcast
8:30 PM 41.0 °F 35.2 °F 39.2 °F 93% 30.24 in 3.1 mi ESE 9.2 mph - N/A   Overcast
9:00 PM 41.0 °F 35.2 °F 37.4 °F 87% 30.24 in 3.1 mi SE 9.2 mph - N/A   Overcast
9:30 PM 41.0 °F 36.4 °F 37.4 °F 87% 30.24 in 3.1 mi SE 6.9 mph - N/A   Overcast
10:00 PM 39.2 °F - 37.4 °F 93% 30.24 in - Variable 2.3 mph - N/A   Overcast
10:30 PM 39.2 °F - 37.4 °F 93% 30.24 in - SSE 2.3 mph - N/A   Overcast
11:00 PM 39.2 °F 37.0 °F 37.4 °F 93% 30.24 in - ESE 3.5 mph - N/A   Overcast
11:30 PM 41.0 °F - 39.2 °F 93% 30.24 in - ESE 2.3 mph - N/A   Overcast